DLH226 EDDG-EKCH

Flight info

Callsign DLH226
Flight time 0h 27m
Altitude 39000
Route DOMEG3E DOMEG N853 HMM M170 STADE L23 HAM P605 GESKA Z711 MONAK
Aircraft A20N/M-SDE2E3FGHIRWXY/LB1

Departure

Time 2026-04-26 13:16
Airport Münster Osnabrück Airport (EDDG)

Arrival

Time 2026-04-26 13:44
Airport Copenhagen Kastrup Airport (EKCH)
Time Latitude Longitude Altitude Speed Heading
2026-04-26 13:03 52.13133 7.69222 167 ft 0 kts 187°
2026-04-26 13:10 52.13166 7.69241 167 ft 4 kts 199°
2026-04-26 13:10 52.13206 7.69265 167 ft 4 kts 213°
2026-04-26 13:10 52.13220 7.69288 167 ft 1 kts 250°
2026-04-26 13:11 52.13222 7.69294 167 ft 0 kts 250°
2026-04-26 13:12 52.13219 7.69281 167 ft 5 kts 250°
2026-04-26 13:13 52.13150 7.68945 167 ft 21 kts 251°
2026-04-26 13:13 52.13106 7.68643 166 ft 25 kts 277°
2026-04-26 13:13 52.13134 7.68378 166 ft 15 kts 310°
2026-04-26 13:13 52.13200 7.68353 166 ft 11 kts 349°
2026-04-26 13:14 52.13239 7.68250 166 ft 13 kts 260°
2026-04-26 13:14 52.13203 7.68077 166 ft 19 kts 251°
2026-04-26 13:14 52.13154 7.67842 166 ft 24 kts 250°
2026-04-26 13:14 52.13094 7.67555 165 ft 29 kts 251°
2026-04-26 13:15 52.13032 7.67276 165 ft 15 kts 251°
2026-04-26 13:15 52.13052 7.67101 165 ft 19 kts 313°
2026-04-26 13:15 52.13153 7.67049 164 ft 14 kts 31°
2026-04-26 13:15 52.13166 7.67080 164 ft 0 kts 77°
2026-04-26 13:16 52.13205 7.67257 164 ft 66 kts 70°
2026-04-26 13:16 52.13486 7.68552 197 ft 167 kts 70°
2026-04-26 13:16 52.13900 7.70601 827 ft 209 kts 71°
2026-04-26 13:16 52.14372 7.72884 2406 ft 218 kts 70°
2026-04-26 13:17 52.15404 7.77793 5185 ft 243 kts 76°
2026-04-26 13:17 52.15703 7.80605 6209 ft 266 kts 80°
2026-04-26 13:18 52.17147 7.96121 11760 ft 333 kts 79°
2026-04-26 13:18 52.17734 8.02706 13239 ft 361 kts 80°
2026-04-26 13:18 52.19127 8.18434 17298 ft 385 kts 81°
2026-04-26 13:19 52.21716 8.29716 19995 ft 395 kts 45°
2026-04-26 13:19 52.23837 8.32549 20905 ft 396 kts 29°
2026-04-26 13:19 52.26289 8.34668 21808 ft 400 kts 23°
2026-04-26 13:19 52.28825 8.36605 22688 ft 406 kts 22°
2026-04-26 13:20 52.37277 8.43534 25306 ft 423 kts 25°
2026-04-26 13:20 52.47897 8.52861 28035 ft 442 kts 25°
2026-04-26 13:20 52.58711 8.62413 30347 ft 459 kts 25°
2026-04-26 13:20 52.65737 8.68643 31619 ft 467 kts 25°
2026-04-26 13:21 52.68559 8.71151 32245 ft 467 kts 25°
2026-04-26 13:21 52.70488 8.72867 32698 ft 466 kts 25°
2026-04-26 13:21 52.74273 8.76239 33588 ft 464 kts 25°
2026-04-26 13:21 52.77111 8.78771 34236 ft 463 kts 25°
2026-04-26 13:22 52.82323 8.83432 35266 ft 461 kts 25°
2026-04-26 13:22 52.93612 8.93569 37416 ft 456 kts 25°
2026-04-26 13:22 53.03064 9.02102 39076 ft 452 kts 25°
2026-04-26 13:22 53.05820 9.04599 39273 ft 450 kts 25°
2026-04-26 13:23 53.16049 9.13897 39326 ft 449 kts 25°
2026-04-26 13:23 53.37846 9.33881 39325 ft 449 kts 25°
2026-04-26 13:23 53.48313 9.45257 39325 ft 457 kts 43°
2026-04-26 13:24 53.52336 9.55730 39317 ft 465 kts 65°
2026-04-26 13:24 53.58454 9.79912 39320 ft 466 kts 64°
2026-04-26 13:25 53.69030 10.19876 39321 ft 463 kts 53°
2026-04-26 13:25 53.86019 10.52054 39328 ft 458 kts 43°
2026-04-26 13:26 53.96366 10.70942 39309 ft 458 kts 43°
2026-04-26 13:26 54.13715 11.02629 39323 ft 457 kts 43°
2026-04-26 13:27 54.30910 11.34742 39034 ft 458 kts 43°
2026-04-26 13:27 54.39661 11.51244 35273 ft 473 kts 43°
2026-04-26 13:27 54.48036 11.67101 31163 ft 481 kts 43°
2026-04-26 13:27 54.50289 11.71379 29970 ft 482 kts 43°
2026-04-26 13:28 54.54428 11.79257 28098 ft 473 kts 43°
2026-04-26 13:28 54.59835 11.89591 25947 ft 456 kts 42°
2026-04-26 13:28 54.64539 11.96474 24318 ft 433 kts 28°
2026-04-26 13:28 54.69444 12.02097 22614 ft 422 kts 28°
2026-04-26 13:29 54.74241 12.07668 20934 ft 409 kts 28°
2026-04-26 13:29 54.77403 12.11342 19858 ft 401 kts 28°
2026-04-26 13:29 54.80661 12.15131 18750 ft 394 kts 28°
2026-04-26 13:29 54.82910 12.17751 18112 ft 384 kts 28°
2026-04-26 13:30 54.85082 12.20289 17769 ft 367 kts 28°
2026-04-26 13:30 54.87162 12.22722 17509 ft 359 kts 27°
2026-04-26 13:30 54.89249 12.25149 17250 ft 361 kts 28°
2026-04-26 13:30 54.91330 12.27575 16990 ft 358 kts 28°
2026-04-26 13:31 54.93388 12.29983 16733 ft 356 kts 28°
2026-04-26 13:31 54.95440 12.32387 16476 ft 355 kts 28°
2026-04-26 13:31 54.97485 12.34783 16212 ft 353 kts 28°
2026-04-26 13:31 54.99502 12.37146 15599 ft 355 kts 28°
2026-04-26 13:32 55.01550 12.39545 14928 ft 353 kts 28°
2026-04-26 13:32 55.03579 12.41913 14299 ft 349 kts 28°
2026-04-26 13:32 55.05590 12.44256 13591 ft 345 kts 28°
2026-04-26 13:32 55.07558 12.46555 13002 ft 337 kts 28°
2026-04-26 13:33 55.09490 12.48815 12382 ft 332 kts 28°
2026-04-26 13:33 55.11400 12.51052 11760 ft 327 kts 28°
2026-04-26 13:33 55.13282 12.53256 11137 ft 323 kts 29°
2026-04-26 13:33 55.15136 12.55432 10550 ft 320 kts 29°
2026-04-26 13:34 55.16942 12.57560 10321 ft 304 kts 29°
2026-04-26 13:34 55.19356 12.60415 10099 ft 282 kts 29°
2026-04-26 13:34 55.24143 12.65865 9092 ft 269 kts 24°
2026-04-26 13:34 55.24702 12.66391 8972 ft 270 kts 24°
2026-04-26 13:35 55.27431 12.68997 8407 ft 268 kts 24°
2026-04-26 13:35 55.29069 12.70577 8082 ft 268 kts 24°
2026-04-26 13:35 55.30701 12.72155 7746 ft 267 kts 25°
2026-04-26 13:35 55.32330 12.73732 7418 ft 267 kts 25°
2026-04-26 13:36 55.34053 12.74781 7087 ft 261 kts
2026-04-26 13:36 55.35809 12.74363 6765 ft 255 kts 336°
2026-04-26 13:36 55.37241 12.72603 6504 ft 251 kts 310°
2026-04-26 13:36 55.39390 12.67810 6277 ft 227 kts 308°
2026-04-26 13:37 55.41652 12.62794 5488 ft 223 kts 308°
2026-04-26 13:37 55.42550 12.60588 5136 ft 222 kts 295°
2026-04-26 13:37 55.42781 12.57935 4782 ft 223 kts 263°
2026-04-26 13:37 55.42169 12.55481 4350 ft 227 kts 233°
2026-04-26 13:38 55.40998 12.53586 4001 ft 224 kts 224°
2026-04-26 13:38 55.39927 12.51736 3865 ft 207 kts 241°
2026-04-26 13:38 55.39527 12.49454 3762 ft 189 kts 272°
2026-04-26 13:38 55.41936 12.44951 3524 ft 158 kts 335°
2026-04-26 13:39 55.45884 12.41773 2878 ft 146 kts 335°
2026-04-26 13:39 55.46945 12.41806 2792 ft 140 kts 20°
2026-04-26 13:39 55.47967 12.43050 2701 ft 135 kts 34°
2026-04-26 13:39 55.48685 12.44135 2633 ft 135 kts 35°
2026-04-26 13:40 55.49148 12.44848 2608 ft 128 kts 35°
2026-04-26 13:40 55.49801 12.45849 2503 ft 124 kts 33°
2026-04-26 13:40 55.50444 12.46838 2366 ft 123 kts 34°
2026-04-26 13:40 55.51089 12.47828 2215 ft 122 kts 34°
2026-04-26 13:41 55.51728 12.48812 2056 ft 122 kts 34°
2026-04-26 13:41 55.52369 12.49797 1894 ft 121 kts 35°
2026-04-26 13:41 55.52998 12.50767 1728 ft 122 kts 34°
2026-04-26 13:41 55.53638 12.51753 1557 ft 121 kts 34°
2026-04-26 13:42 55.54272 12.52732 1389 ft 120 kts 34°
2026-04-26 13:42 55.55002 12.53855 1201 ft 120 kts 34°
2026-04-26 13:42 55.56023 12.55431 917 ft 120 kts 35°
2026-04-26 13:42 55.56649 12.56394 747 ft 119 kts 35°
2026-04-26 13:43 55.57266 12.57350 582 ft 119 kts 35°
2026-04-26 13:43 55.57903 12.58329 400 ft 122 kts 35°
2026-04-26 13:43 55.58527 12.59314 225 ft 121 kts 36°
2026-04-26 13:43 55.59162 12.60281 81 ft 119 kts 33°
2026-04-26 13:44 55.59767 12.61180 18 ft 99 kts 37°
2026-04-26 13:44 55.60069 12.61649 25 ft 35 kts 41°
2026-04-26 13:44 55.60326 12.62034 20 ft 55 kts 38°
2026-04-26 13:44 55.60531 12.62299 25 ft 21 kts 17°
2026-04-26 13:45 55.60679 12.62357 27 ft 23 kts 11°
2026-04-26 13:45 55.60839 12.62479 28 ft 27 kts 39°
2026-04-26 13:45 55.60999 12.62713 27 ft 31 kts 45°
2026-04-26 13:45 55.61136 12.62928 31 ft 21 kts 38°
2026-04-26 13:46 55.61251 12.63117 27 ft 24 kts 41°
2026-04-26 13:46 55.61389 12.63328 27 ft 29 kts 41°
2026-04-26 13:46 55.61552 12.63573 25 ft 33 kts 41°
2026-04-26 13:46 55.61718 12.63833 26 ft 18 kts 42°
2026-04-26 13:47 55.61776 12.63927 27 ft 14 kts 42°
2026-04-26 13:47 55.61869 12.64068 31 ft 21 kts 35°
2026-04-26 13:47 55.62013 12.64189 20 ft 23 kts 24°
2026-04-26 13:47 55.62151 12.64303 16 ft 23 kts 24°
2026-04-26 13:48 55.62312 12.64414 21 ft 25 kts 15°
2026-04-26 13:48 55.62456 12.64476 20 ft 17 kts
2026-04-26 13:48 55.62538 12.64366 20 ft 12 kts 306°
2026-04-26 13:48 55.62593 12.64271 21 ft 12 kts 342°
2026-04-26 13:49 55.62681 12.64324 19 ft 10 kts 26°
2026-04-26 13:49 55.62726 12.64302 20 ft 5 kts 304°
2026-04-26 13:49 55.62729 12.64291 19 ft 0 kts 300°